[[{"header":{"parameterUnit":"m.s-1","parameterCategory":2,"la1":30.2991,"la2":30.254,"lo1":-89.0895,"lo2":-89.0444,"dy":0.0017,"dx":0.0017,"nx":28,"ny":28,"refTime":"2025-07-22T21:00:00:Z","depth":"0","parameterNumber":2,"parameterNumberName":"U-component_of_CURRENTS"},"data":[0,0,0,0,0,0,0,0,0,0,0,0,0,0,0,0,0,0,0,0,0,0,0,0,0,0,0,0,0,0,0,0,0,0,0,0,0,0,0,0,0,0,0,0,0,0,0,0,0,0,0,0,0,0,0,0,0,0,-0.1451,-0.145,0,-0.1331,-0.1329,-0.1328,-0.1262,-0.1262,-0.1262,-0.1262,-0.1083,-0.1079,-0.1074,0,0,0,0,0,0,0,0,0,0,0,0,0,-0.1473,-0.1474,-0.1451,-0.145,-0.1449,-0.1331,-0.1329,-0.1327,-0.1262,-0.1262,-0.1262,-0.1262,-0.1085,-0.1079,-0.1073,0,0,0,0,0,0,0,0,0,0,0,0,0,-0.1418,-0.1474,-0.1451,-0.1404,-0.1399,-0.1332,-0.1329,-0.1327,-0.1262,-0.1262,-0.1262,-0.1262,-0.1087,-0.108,-0.1073,-0.1026,0,0,-0.105,-0.1047,0,0,0,0,0,0,0,0,-0.1421,-0.1417,-0.1412,-0.1407,-0.1401,-0.1314,-0.1271,-0.1224,-0.1262,-0.1311,-0.1262,-0.1263,-0.1156,-0.1144,-0.1118,-0.1017,-0.101,-0.105,-0.1045,-0.1042,-0.104,0,0,0,0,0,0,0,-0.1425,-0.1421,-0.1401,-0.1411,-0.1404,-0.1337,-0.133,-0.1261,-0.1232,-0.1307,-0.1303,-0.1293,-0.1153,-0.1125,-0.1113,-0.1007,-0.105,-0.1044,-0.1039,-0.1036,-0.099,-0.0993,0,0,0,0,0,0,-0.1453,-0.1425,-0.1405,-0.1398,-0.1414,-0.1337,-0.133,-0.134,-0.1234,-0.1219,-0.1293,-0.1291,-0.1137,-0.1122,-0.1106,-0.116,-0.1042,-0.1035,-0.1031,-0.0987,-0.0991,-0.0994,0,0,0,0,0,0,-0.1454,-0.1453,-0.141,-0.1409,-0.1399,-0.1338,-0.1349,-0.1337,-0.131,-0.1224,-0.1208,-0.1279,-0.1137,-0.1117,-0.107,-0.1148,-0.1032,-0.1026,-0.0983,-0.0988,-0.0993,-0.1192,0,0,0,0,0,0,-0.1456,-0.1455,-0.1465,-0.1412,-0.1401,-0.1385,-0.1349,-0.1335,-0.1305,-0.13,-0.1206,-0.1189,-0.1135,-0.1082,-0.1063,-0.1136,-0.102,-0.0979,-0.0986,-0.0991,-0.1182,-0.1203,-0.1222,0,0,0,0,0,-0.1457,-0.1462,-0.1467,-0.1463,-0.142,-0.1386,-0.1374,-0.1327,-0.1305,-0.1301,-0.1249,-0.1192,-0.1108,-0.1077,-0.1054,-0.1127,-0.0977,-0.0984,-0.0991,-0.1173,-0.1199,-0.1221,0,0,0,0,0,0,-0.146,-0.1455,-0.1458,-0.1459,-0.1438,-0.1377,-0.1353,-0.1331,-0.1283,-0.127,-0.1198,-0.1178,-0.1179,-0.1116,-0.1084,-0.1136,-0.1046,-0.1049,-0.1193,-0.1216,-0.1236,-0.1249,-0.1014,0,0,0,0,0,-0.1475,-0.1487,-0.1468,-0.1468,-0.1457,-0.141,-0.1386,-0.1362,-0.1315,-0.1293,-0.1239,-0.1197,-0.119,-0.117,-0.1132,-0.1128,-0.1108,-0.1173,-0.1193,-0.1211,-0.121,-0.1294,-0.1322,-0.1017,-0.1017,-0.1017,0,0,-0.1473,-0.1472,-0.1477,-0.1471,-0.144,-0.1442,-0.1395,-0.1362,-0.1385,-0.1278,-0.1276,-0.1245,-0.1202,-0.1226,-0.1223,-0.1181,-0.1284,-0.122,-0.1235,-0.1224,-0.1304,-0.1334,-0.1361,-0.1022,-0.1021,-0.102,0,0,-0.1463,-0.1479,-0.148,-0.1478,-0.1454,-0.1446,-0.1447,-0.1403,-0.1406,-0.1397,-0.1365,-0.1392,-0.1318,-0.1355,-0.1355,-0.1456,-0.1384,-0.1437,-0.1548,-0.1632,-0.1658,-0.1681,-0.1684,-0.1706,-0.1453,-0.1453,-0.1454,0,-0.1457,-0.147,-0.1471,-0.1473,-0.148,-0.1461,-0.1469,-0.1478,-0.1435,-0.1465,-0.1419,-0.1441,-0.1405,-0.1506,-0.1546,-0.1509,-0.1495,-0.1463,-0.1661,-0.1683,-0.1703,-0.1701,-0.1722,-0.1464,-0.1463,-0.1461,-0.146,0,-0.145,-0.1466,-0.146,-0.1488,-0.1505,-0.1497,-0.1533,-0.1558,-0.1564,-0.1584,-0.1661,-0.164,-0.1662,-0.1686,-0.1632,-0.1776,-0.1699,-0.1677,-0.1605,-0.1746,-0.1734,-0.1752,-0.1479,-0.1475,-0.1472,-0.1469,0,0,-0.1416,-0.145,-0.1449,-0.1475,-0.1513,-0.1524,-0.1606,-0.1679,-0.1746,-0.1764,-0.1853,-0.1907,-0.1903,-0.1904,-0.1888,-0.1961,-0.2092,-0.1869,-0.1868,-0.1878,-0.2211,-0.202,-0.202,-0.2098,-0.2103,-0.2106,-0.2143,0,-0.1402,-0.1412,-0.1456,-0.1503,-0.1513,-0.1581,-0.1668,-0.175,-0.1812,-0.1894,-0.197,-0.202,-0.1991,-0.1999,-0.2089,-0.2063,-0.2149,-0.2079,-0.2064,-0.2063,-0.1884,-0.204,-0.1871,-0.1878,-0.216,-0.2163,-0.2165,0,-0.1377,-0.1395,-0.1416,-0.1525,-0.1542,-0.1589,-0.1741,-0.1816,-0.1968,-0.2015,-0.2125,-0.2142,-0.2255,-0.2201,-0.2314,-0.2255,-0.2254,-0.2252,-0.2253,-0.2013,-0.1907,-0.1783,-0.1899,-0.1883,-0.2192,-0.219,-0.2188,0,-0.1326,-0.1383,-0.1405,-0.1428,-0.1539,-0.1598,-0.1681,-0.1838,-0.1921,-0.2078,-0.2122,-0.2277,-0.2291,-0.238,-0.2353,-0.2338,-0.2434,-0.2424,-0.2275,-0.2258,-0.2079,-0.2038,-0.2181,-0.2553,-0.2553,-0.2553,-0.2553,0,-0.1292,-0.1313,-0.1375,-0.1381,-0.1454,-0.156,-0.1676,-0.1783,-0.1938,-0.2024,-0.2158,-0.2214,-0.233,-0.2379,-0.24,-0.2359,-0.2488,-0.2312,-0.228,-0.2137,-0.2102,-0.2042,-0.207,-0.2554,-0.2554,-0.2554,-0.2553,0,-0.1211,-0.125,-0.1272,-0.1371,-0.1412,-0.1456,-0.1627,-0.1715,-0.1863,-0.1968,-0.2005,-0.2158,-0.2205,-0.2295,-0.2385,-0.2356,-0.2323,-0.2343,-0.2113,-0.2054,-0.1864,-0.1907,-0.1987,-0.1936,-0.2201,-0.2197,-0.2194,0,-0.1163,-0.115,-0.122,-0.1239,-0.1272,-0.1368,-0.1444,-0.1636,-0.1722,-0.1909,-0.1933,-0.2024,-0.2074,-0.2127,-0.2087,-0.2108,-0.2178,-0.196,-0.1932,-0.1848,-0.1878,-0.1928,-0.1885,-0.1779,-0.1772,-0.1767,-0.1762,0,-0.105,-0.1059,-0.1071,-0.1109,-0.1163,-0.1253,-0.1366,-0.1423,-0.1629,-0.1716,-0.18,-0.1858,-0.1873,-0.1801,-0.179,-0.179,-0.1875,-0.1842,-0.1871,-0.1653,-0.1611,-0.1542,-0.1714,-0.1714,-0.1719,-0.1723,-0.1725,-0.1727,-0.0939,-0.0912,-0.0924,-0.0962,-0.1033,-0.1103,-0.1133,-0.1263,-0.1362,-0.1476,-0.1607,-0.1642,-0.161,-0.1548,-0.153,-0.1358,-0.1506,-0.1342,-0.1426,-0.1505,-0.139,-0.1395,-0.1281,-0.1283,-0.1285,-0.1287,-0.1288,0,-0.0789,-0.078,-0.0795,-0.083,-0.0863,-0.0956,-0.1057,-0.1074,-0.1117,-0.1253,-0.134,-0.131,-0.1243,-0.1214,-0.1034,-0.0982,-0.1006,-0.1006,-0.1097,-0.1093,-0.1186,-0.1095,-0.0795,-0.0795,-0.0795,-0.0795,-0.0795,-0.0795,-0.0705,-0.0646,-0.066,-0.0646,-0.0687,-0.0693,-0.0716,-0.0755,-0.0831,-0.0858,-0.0867,-0.0944,-0.092,-0.1013,-0.0913,-0.0862,-0.0923,-0.0856,-0.0973,-0.1076,-0.1116,-0.1155,-0.1078,-0.0779,-0.078,-0.0791,-0.0792,-0.0792]},{"header":{"parameterUnit":"m.s-1","parameterCategory":2,"la1":30.2991,"la2":30.254,"lo1":-89.0895,"lo2":-89.0444,"dy":0.0017,"dx":0.0017,"nx":28,"ny":28,"refTime":"2025-07-22T21:00:00:Z","depth":"0","parameterNumber":3,"parameterNumberName":"V-component_of_CURRENTS"},"data":[0,0,0,0,0,0,0,0,0,0,0,0,0,0,0,0,0,0,0,0,0,0,0,0,0,0,0,0,0,0,0,0,0,0,0,0,0,0,0,0,0,0,0,0,0,0,0,0,0,0,0,0,0,0,0,0,0,0,0.0007,0.0008,0,0.0124,0.0125,0.0126,0.0169,0.0169,0.0169,0.0168,0.0211,0.0212,0.0214,0,0,0,0,0,0,0,0,0,0,0,0,0,-0.0187,-0.0184,0.0007,0.0008,0.001,0.0124,0.0125,0.0127,0.0169,0.0169,0.0169,0.0168,0.0211,0.0212,0.0214,0,0,0,0,0,0,0,0,0,0,0,0,0,-0.0092,-0.0183,0.0006,0.0047,0.0052,0.0124,0.0125,0.0127,0.0169,0.0169,0.0168,0.0168,0.021,0.0212,0.0214,0.023,0,0,0.022,0.0221,0,0,0,0,0,0,0,0,-0.0098,-0.0086,0.0039,0.0044,0.005,0.0134,0.0073,0.0159,0.0169,0.0122,0.0168,0.0168,0.018,0.0185,0.0204,0.0232,0.0234,0.022,0.0221,0.0222,0.0222,0,0,0,0,0,0,0,-0.0104,-0.009,0.005,0.0041,0.0048,0.0058,0.0071,0.009,0.0147,0.0126,0.013,0.0147,0.0182,0.0203,0.0206,0.0235,0.022,0.0222,0.0223,0.0223,0.0202,0.02,0,0,0,0,0,0,-0.0112,-0.0096,0.0047,0.0054,-0.0023,0.0061,0.0076,0.0105,0.0149,0.0157,0.0147,0.0149,0.0199,0.0203,0.0207,0.0153,0.0222,0.0224,0.0225,0.0204,0.0202,0.02,0,0,0,0,0,0,-0.0116,-0.01,0.0042,-0.0017,0.0002,0.0065,0.0098,0.0108,0.0127,0.0167,0.0172,0.0156,0.0199,0.0204,0.0203,0.0157,0.0225,0.0226,0.0206,0.0203,0.0201,0.0092,0,0,0,0,0,0,-0.0122,-0.0102,-0.0092,-0.0017,0.0005,0.0066,0.0099,0.011,0.014,0.0142,0.0176,0.0181,0.02,0.02,0.0205,0.0161,0.0228,0.0208,0.0205,0.0202,0.0098,0.0086,0.0076,0,0,0,0,0,-0.0129,-0.0112,-0.0092,-0.0075,0.002,0.0065,0.0076,0.0118,0.014,0.0137,0.0156,0.0179,0.0182,0.0201,0.0207,0.0162,0.021,0.0206,0.0202,0.0103,0.0089,0.0077,0,0,0,0,0,0,-0.0196,-0.0104,-0.008,-0.0037,0.0001,0.0073,0.0086,0.0116,0.0134,0.0135,0.0169,0.0173,0.015,0.0177,0.0196,0.0146,0.0195,0.0193,0.0118,0.0105,0.0094,0.0063,0.0229,0,0,0,0,0,-0.0204,-0.0166,-0.0092,-0.0064,-0.004,0.0022,0.0045,0.0072,0.0106,0.0116,0.0136,0.0148,0.0141,0.014,0.0147,0.013,0.0152,0.0102,0.0091,0.0082,0.006,0.0062,0.0049,0.0187,0.0187,0.0187,0,0,-0.0226,-0.0168,-0.0149,-0.0077,-0.0035,-0.0042,0.0034,0.0067,0.0036,0.0116,0.0081,0.0116,0.013,0.01,0.0091,0.0115,0.0054,0.0077,0.0069,0.0051,0.0057,0.0043,0.0031,0.0185,0.0185,0.0185,0,0,-0.0255,-0.0194,-0.0178,-0.0158,-0.01,-0.0076,-0.0072,-0.0011,-0.0007,-0.0016,0.0014,0.0023,0.003,0.0021,0.0019,-0.0045,-0.0002,-0.0042,-0.0125,-0.0123,-0.0135,-0.0144,-0.0134,-0.0142,-0.005,-0.0051,-0.0051,0,-0.0292,-0.0262,-0.0175,-0.0175,-0.0184,-0.0104,-0.0137,-0.0123,-0.0084,-0.0092,-0.0049,-0.0044,-0.0018,-0.0074,-0.0099,-0.0073,-0.0057,-0.0077,-0.0138,-0.0147,-0.0155,-0.0142,-0.015,-0.0056,-0.0056,-0.0055,-0.0054,0,-0.0317,-0.0316,-0.0308,-0.0295,-0.0297,-0.0303,-0.0283,-0.0288,-0.0263,-0.0242,-0.0259,-0.0207,-0.0203,-0.0198,-0.0168,-0.0226,-0.019,-0.0149,-0.0106,-0.0176,-0.0157,-0.0163,-0.0064,-0.0062,-0.0061,-0.0059,0,0,-0.0359,-0.0333,-0.0339,-0.0377,-0.0367,-0.0378,-0.0434,-0.0456,-0.0491,-0.0442,-0.048,-0.0466,-0.0395,-0.0394,-0.0344,-0.0341,-0.0373,-0.0277,-0.0274,-0.027,-0.0365,-0.0201,-0.019,-0.0338,-0.034,-0.0341,-0.0328,0,-0.0421,-0.0456,-0.0438,-0.0537,-0.0568,-0.0556,-0.062,-0.0634,-0.0619,-0.0632,-0.0567,-0.0571,-0.0486,-0.0469,-0.0456,-0.0394,-0.0393,-0.038,-0.0296,-0.0294,-0.0141,-0.0194,-0.0097,-0.0065,-0.0334,-0.0334,-0.0335,0,-0.0464,-0.0491,-0.0572,-0.0665,-0.0679,-0.0738,-0.0824,-0.0865,-0.086,-0.0836,-0.0805,-0.0733,-0.0722,-0.0623,-0.0567,-0.0559,-0.0483,-0.0423,-0.042,-0.0236,-0.014,-0.0038,-0.0065,0.0101,-0.0343,-0.0343,-0.0342,0,-0.053,-0.0605,-0.0681,-0.071,-0.0783,-0.0844,-0.0893,-0.092,-0.0962,-0.0951,-0.0958,-0.0903,-0.0878,-0.0784,-0.0622,-0.061,-0.0536,-0.0501,-0.0289,-0.0277,-0.0163,-0.0135,-0.002,-0.0476,-0.0476,-0.0476,-0.0476,0,-0.0603,-0.0672,-0.0719,-0.0764,-0.0893,-0.0917,-0.1033,-0.1056,-0.1086,-0.1148,-0.1055,-0.1095,-0.0918,-0.0831,-0.0683,-0.0484,-0.0579,-0.0318,-0.0266,-0.0194,-0.0171,0.0008,0.006,-0.0475,-0.0475,-0.0475,-0.0476,0,-0.0646,-0.0671,-0.0769,-0.0868,-0.0915,-0.0999,-0.1124,-0.1194,-0.1207,-0.1284,-0.1284,-0.125,-0.1121,-0.0899,-0.0739,-0.0561,-0.0257,-0.0291,-0.02,-0.0135,0.0241,0.0282,0.042,0.0534,-0.0081,-0.0077,-0.0074,0,-0.0661,-0.0705,-0.083,-0.0907,-0.0957,-0.1083,-0.1173,-0.1239,-0.1314,-0.1398,-0.1448,-0.135,-0.129,-0.0949,-0.0568,-0.0229,-0.0119,0.0038,0.0088,0.0273,0.0353,0.0363,0.0447,0.0179,0.0185,0.0189,0.0192,0,-0.0698,-0.0725,-0.0797,-0.0946,-0.1067,-0.1212,-0.1344,-0.1428,-0.1511,-0.1592,-0.1698,-0.1662,-0.1267,-0.0848,-0.0307,-0.0099,0.0199,0.014,0.0285,0.0534,0.0589,0.0723,0.0161,0.0231,0.0227,0.0224,0.0222,0.022,-0.0708,-0.0761,-0.0845,-0.0994,-0.1136,-0.1312,-0.1429,-0.1579,-0.1726,-0.1843,-0.1843,-0.171,-0.1026,-0.0255,-0.0037,0.0603,0.0506,0.0764,0.0783,0.0764,0.093,0.0479,0.0654,0.0652,0.0651,0.065,0.0649,0,-0.0723,-0.0779,-0.0903,-0.1076,-0.1221,-0.1301,-0.1522,-0.1635,-0.1822,-0.1862,-0.1918,-0.1162,-0.055,0.0102,0.0977,0.1224,0.1239,0.1336,0.1334,0.138,0.0945,0.102,0.1339,0.1339,0.1339,0.1338,0.1338,0.1338,-0.0734,-0.0823,-0.0887,-0.1104,-0.1226,-0.1419,-0.1542,-0.1725,-0.1771,-0.1665,-0.1297,-0.0967,0.0056,0.1018,0.1657,0.1712,0.1857,0.1861,0.1918,0.1594,0.154,0.1488,0.1573,0.2002,0.2003,0.2359,0.2362,0.2365]}],[{"header":{"parameterUnit":"m.s-1","parameterCategory":2,"la1":30.2991,"la2":30.254,"lo1":-89.0895,"lo2":-89.0444,"dy":0.0017,"dx":0.0017,"nx":28,"ny":28,"refTime":"2025-07-22T21:00:00:Z","depth":"2","parameterNumber":2,"parameterNumberName":"U-component_of_CURRENTS"},"data":[0,0,0,0,0,0,0,0,0,0,0,0,0,0,0,0,0,0,0,0,0,0,0,0,0,0,0,0,0,0,0,0,0,0,0,0,0,0,0,0,0,0,0,0,0,0,0,0,0,0,0,0,0,0,0,0,0,0,-0.2426,-0.2427,0,-0.25,-0.25,-0.25,-0.2407,-0.2405,-0.2402,-0.2399,-0.2308,-0.2308,-0.2308,0,0,0,0,0,0,0,0,0,0,0,0,0,-0.2303,-0.2305,-0.2426,-0.2428,-0.2429,-0.25,-0.25,-0.25,-0.2408,-0.2404,-0.2401,-0.2398,-0.2308,-0.2308,-0.2308,0,0,0,0,0,0,0,0,0,0,0,0,0,-0.2358,-0.2305,-0.2426,-0.2397,-0.2395,-0.25,-0.25,-0.25,-0.2409,-0.2404,-0.24,-0.2396,-0.2308,-0.2308,-0.2308,-0.2392,0,0,-0.2309,-0.2309,0,0,0,0,0,0,0,0,-0.2355,-0.2361,-0.2399,-0.2399,-0.2398,-0.2446,-0.2424,-0.2458,-0.241,-0.2396,-0.2399,-0.2394,-0.2347,-0.2343,-0.2359,-0.2388,-0.2384,-0.2309,-0.2309,-0.2309,-0.2309,0,0,0,0,0,0,0,-0.2351,-0.2358,-0.2448,-0.2402,-0.2401,-0.2414,-0.2416,-0.243,-0.2385,-0.2397,-0.2392,-0.2413,-0.2343,-0.2359,-0.2355,-0.2382,-0.2309,-0.2309,-0.2309,-0.2309,-0.2345,-0.2346,0,0,0,0,0,0,-0.2356,-0.2355,-0.2446,-0.2451,-0.2374,-0.242,-0.2421,-0.2429,-0.2388,-0.2382,-0.2416,-0.2409,-0.236,-0.2355,-0.2352,-0.2361,-0.2309,-0.2309,-0.2309,-0.2345,-0.2346,-0.2346,0,0,0,0,0,0,-0.2353,-0.2363,-0.2443,-0.2411,-0.2422,-0.2426,-0.2436,-0.2433,-0.2413,-0.2406,-0.2393,-0.2396,-0.2357,-0.2351,-0.2342,-0.2359,-0.2309,-0.2309,-0.2344,-0.2345,-0.2346,-0.2435,0,0,0,0,0,0,-0.2349,-0.2361,-0.2348,-0.2411,-0.2425,-0.2496,-0.2441,-0.2438,-0.2438,-0.2427,-0.2387,-0.2376,-0.2353,-0.2342,-0.2342,-0.2359,-0.2309,-0.2342,-0.2344,-0.2346,-0.2431,-0.2439,-0.2446,0,0,0,0,0,-0.2344,-0.2364,-0.2347,-0.2358,-0.2413,-0.2498,-0.2506,-0.2491,-0.2441,-0.2451,-0.2412,-0.2375,-0.235,-0.2344,-0.2343,-0.236,-0.2342,-0.2344,-0.2345,-0.2428,-0.2438,-0.2446,0,0,0,0,0,0,-0.2304,-0.2359,-0.2341,-0.2372,-0.2422,-0.2484,-0.2498,-0.2487,-0.247,-0.2442,-0.2401,-0.2391,-0.2384,-0.2366,-0.2358,-0.2372,-0.2335,-0.2337,-0.2398,-0.2407,-0.2414,-0.2418,-0.231,0,0,0,0,0,-0.2294,-0.2306,-0.2376,-0.2391,-0.2424,-0.2453,-0.2475,-0.2477,-0.2488,-0.2474,-0.2441,-0.241,-0.2406,-0.2396,-0.2386,-0.2412,-0.2359,-0.2416,-0.2424,-0.2431,-0.2433,-0.2376,-0.2378,-0.2353,-0.2353,-0.2353,0,0,-0.2274,-0.2311,-0.231,-0.2381,-0.2414,-0.2484,-0.2453,-0.2502,-0.2532,-0.2471,-0.2466,-0.2436,-0.2416,-0.2432,-0.2427,-0.2412,-0.2408,-0.2433,-0.2439,-0.2437,-0.2378,-0.238,-0.2382,-0.2354,-0.2354,-0.2354,0,0,-0.2294,-0.2288,-0.2325,-0.2381,-0.2452,-0.2487,-0.2498,-0.2552,-0.2539,-0.2563,-0.2513,-0.2493,-0.2486,-0.2479,-0.2476,-0.2524,-0.2447,-0.2511,-0.2561,-0.2507,-0.2508,-0.2509,-0.2436,-0.2429,-0.2519,-0.252,-0.252,0,-0.2267,-0.2328,-0.235,-0.2428,-0.2472,-0.2489,-0.256,-0.2582,-0.2608,-0.2597,-0.256,-0.2531,-0.2514,-0.2535,-0.2551,-0.2543,-0.2484,-0.2532,-0.2516,-0.2516,-0.2515,-0.244,-0.2431,-0.2524,-0.2524,-0.2523,-0.2523,0,-0.2344,-0.2386,-0.2426,-0.251,-0.2557,-0.2627,-0.2681,-0.2688,-0.2663,-0.2667,-0.2652,-0.2632,-0.2603,-0.2608,-0.2601,-0.2598,-0.2548,-0.2529,-0.2494,-0.2523,-0.2442,-0.2431,-0.2531,-0.2529,-0.2528,-0.2526,0,0,-0.2297,-0.2449,-0.2454,-0.2499,-0.2608,-0.2653,-0.271,-0.2761,-0.2738,-0.2754,-0.2722,-0.2751,-0.2699,-0.2693,-0.2671,-0.2647,-0.26,-0.2593,-0.2588,-0.2522,-0.2452,-0.239,-0.2372,-0.2569,-0.2568,-0.2567,-0.2395,0,-0.2347,-0.2485,-0.255,-0.2646,-0.272,-0.2758,-0.2789,-0.2816,-0.2799,-0.2764,-0.276,-0.2711,-0.2746,-0.2695,-0.2698,-0.2606,-0.2577,-0.2646,-0.2433,-0.2426,-0.2369,-0.236,-0.2193,-0.2024,-0.2384,-0.2382,-0.2381,0,-0.2404,-0.2483,-0.2606,-0.2691,-0.272,-0.2773,-0.2782,-0.2816,-0.2798,-0.2764,-0.2752,-0.2701,-0.2692,-0.268,-0.2601,-0.2636,-0.256,-0.2499,-0.249,-0.2394,-0.2345,-0.2054,-0.1991,-0.2363,-0.2364,-0.2365,-0.2367,0,-0.2362,-0.2508,-0.2593,-0.2639,-0.275,-0.2775,-0.2806,-0.2804,-0.2755,-0.274,-0.2651,-0.2671,-0.2595,-0.256,-0.2488,-0.251,-0.2362,-0.2363,-0.2243,-0.2236,-0.2034,-0.2011,-0.2287,-0.2287,-0.2287,-0.2288,-0.2288,0,-0.2409,-0.2462,-0.2573,-0.263,-0.265,-0.2737,-0.2713,-0.2737,-0.2679,-0.2589,-0.263,-0.2535,-0.255,-0.2473,-0.2448,-0.2318,-0.233,-0.2239,-0.2188,-0.206,-0.2043,-0.2295,-0.2299,-0.2281,-0.2283,-0.2284,-0.2285,0,-0.2379,-0.2468,-0.2544,-0.2642,-0.2651,-0.2658,-0.2633,-0.2546,-0.256,-0.2434,-0.2401,-0.2375,-0.2299,-0.2304,-0.2211,-0.2207,-0.2119,-0.2067,-0.192,-0.1857,-0.2033,-0.2043,-0.189,-0.1886,-0.1883,-0.188,-0.1878,0,-0.2386,-0.2437,-0.2512,-0.2492,-0.2542,-0.2541,-0.2459,-0.2469,-0.237,-0.2321,-0.2214,-0.2144,-0.2066,-0.196,-0.193,-0.1857,-0.1977,-0.1673,-0.1708,-0.2026,-0.1992,-0.2007,-0.2021,-0.1457,-0.1452,-0.1448,-0.1444,0,-0.2365,-0.2387,-0.2427,-0.24,-0.234,-0.225,-0.2187,-0.2104,-0.2078,-0.2009,-0.192,-0.1872,-0.1779,-0.1653,-0.1601,-0.1556,-0.169,-0.1579,-0.19,-0.1615,-0.1613,-0.1583,-0.1611,-0.1405,-0.1408,-0.1411,-0.1413,-0.1415,-0.2282,-0.2286,-0.2307,-0.2268,-0.2158,-0.1981,-0.1883,-0.1812,-0.1694,-0.1604,-0.1656,-0.1562,-0.154,-0.1366,-0.1291,-0.1252,-0.1377,-0.1341,-0.1356,-0.1375,-0.1387,-0.1384,-0.1131,-0.1134,-0.1136,-0.1137,-0.1139,0,-0.2169,-0.2178,-0.2148,-0.2052,-0.1839,-0.1847,-0.1666,-0.155,-0.1432,-0.1378,-0.1342,-0.1182,-0.1076,-0.1071,-0.0923,-0.0903,-0.0912,-0.0886,-0.0898,-0.0936,-0.0971,-0.0965,-0.0595,-0.0594,-0.0593,-0.0591,0,0,-0.2099,-0.205,-0.206,-0.1754,-0.1646,-0.1361,-0.1244,-0.1152,-0.1099,-0.1,-0.0951,-0.1014,-0.1013,-0.0806,-0.0754,-0.0645,-0.0788,-0.0609,-0.1039,-0.1088,-0.1121,-0.1219,-0.1251,0,0,0,0,0]},{"header":{"parameterUnit":"m.s-1","parameterCategory":2,"la1":30.2991,"la2":30.254,"lo1":-89.0895,"lo2":-89.0444,"dy":0.0017,"dx":0.0017,"nx":28,"ny":28,"refTime":"2025-07-22T21:00:00:Z","depth":"2","parameterNumber":3,"parameterNumberName":"V-component_of_CURRENTS"},"data":[0,0,0,0,0,0,0,0,0,0,0,0,0,0,0,0,0,0,0,0,0,0,0,0,0,0,0,0,0,0,0,0,0,0,0,0,0,0,0,0,0,0,0,0,0,0,0,0,0,0,0,0,0,0,0,0,0,0,-0.0083,-0.0082,0,0.001,0.0011,0.0013,0.0036,0.0035,0.0034,0.0033,0.0162,0.0166,0.0171,0,0,0,0,0,0,0,0,0,0,0,0,0,-0.0108,-0.0108,-0.0083,-0.0082,-0.0082,0.001,0.0011,0.0013,0.0036,0.0035,0.0033,0.0032,0.016,0.0166,0.0171,0,0,0,0,0,0,0,0,0,0,0,0,0,-0.006,-0.0108,-0.0083,-0.0063,-0.0061,0.0009,0.0011,0.0014,0.0036,0.0035,0.0033,0.0032,0.0159,0.0165,0.0172,0.0245,0,0,0.0192,0.0195,0,0,0,0,0,0,0,0,-0.0063,-0.0058,-0.0067,-0.0064,-0.0061,0.0005,0.005,0.0091,0.0037,0.0005,0.0033,0.0031,0.0111,0.0121,0.0149,0.0251,0.0256,0.0193,0.0197,0.0199,0.0201,0,0,0,0,0,0,0,-0.0066,-0.0062,-0.0041,-0.0066,-0.0063,-0.0013,-0.0009,0.0059,0.007,0.0008,0.0008,0.0011,0.0113,0.0142,0.0152,0.0258,0.0192,0.0198,0.0202,0.0205,0.0438,0.044,0,0,0,0,0,0,-0.0093,-0.0065,-0.0044,-0.0039,-0.0072,-0.0013,-0.0007,-0.001,0.0069,0.0078,0.0012,0.0012,0.0132,0.0144,0.0157,0.0241,0.0199,0.0206,0.0209,0.0436,0.0439,0.0441,0,0,0,0,0,0,-0.0094,-0.0092,-0.0048,-0.0053,-0.0045,-0.0012,-0.0015,-0.0008,0.0004,0.0071,0.0081,0.0014,0.0131,0.0147,0.0213,0.0246,0.0209,0.0215,0.0433,0.0437,0.044,0.0413,0,0,0,0,0,0,-0.0095,-0.0093,-0.0099,-0.0056,-0.0046,-0.0018,-0.0013,-0.0005,0.0007,0.0006,0.0077,0.0088,0.0131,0.0203,0.022,0.0254,0.022,0.0431,0.0435,0.0439,0.0411,0.0415,0.0418,0,0,0,0,0,-0.0096,-0.011,-0.01,-0.0097,-0.0058,-0.0018,-0.0008,0.0015,0.0008,0.0019,0.0068,0.0085,0.0242,0.021,0.0229,0.0266,0.0429,0.0434,0.0439,0.0409,0.0414,0.0418,0,0,0,0,0,0,-0.013,-0.0108,-0.0096,-0.0104,-0.0067,-0.0017,-0.0011,0.0007,0.0057,0.005,0.011,0.0127,0.0195,0.0241,0.0205,0.0349,0.034,0.0349,0.0312,0.0317,0.032,0.0301,0.0225,0,0,0,0,0,-0.0138,-0.014,-0.0103,-0.0107,-0.0096,-0.0052,-0.0035,-0.0018,0.0026,0.0044,0.0096,0.0163,0.0239,0.0279,0.0344,0.0425,0.0426,0.0465,0.0469,0.0471,0.0472,0.0535,0.0543,0.0457,0.0457,0.0457,0,0,-0.0152,-0.014,-0.0142,-0.0113,-0.0086,-0.0058,-0.0046,-0.0029,0.0005,0.0054,0.0111,0.0169,0.026,0.0345,0.0383,0.0384,0.0483,0.0477,0.0479,0.0478,0.0541,0.0549,0.0556,0.0461,0.046,0.046,0,0,-0.0181,-0.0171,-0.0181,-0.015,-0.0119,-0.0078,-0.0079,-0.003,-0.0002,0.0061,0.0113,0.0193,0.029,0.0379,0.0434,0.0504,0.0492,0.052,0.0534,0.0595,0.0601,0.0607,0.0547,0.0548,0.0532,0.0532,0.0532,0,-0.0202,-0.0204,-0.0174,-0.0167,-0.0142,-0.0092,-0.0079,-0.0028,0.004,0.0084,0.0068,0.025,0.0316,0.0457,0.0476,0.0513,0.0493,0.0502,0.0595,0.0602,0.0609,0.0546,0.0548,0.0531,0.0531,0.0531,0.0531,0,-0.0227,-0.0224,-0.0227,-0.0193,-0.0155,-0.014,-0.0068,-0.0023,0.0013,0.0077,0.0188,0.0285,0.0391,0.0438,0.0474,0.058,0.0526,0.0577,0.0571,0.0615,0.0546,0.0548,0.053,0.0531,0.0531,0.0531,0,0,-0.029,-0.0255,-0.0255,-0.0242,-0.0171,-0.0144,-0.0073,0.0019,0.0055,0.015,0.0209,0.0373,0.0412,0.0478,0.0549,0.0615,0.0623,0.0604,0.0608,0.0516,0.0652,0.0685,0.0689,0.068,0.0682,0.0684,0.0556,0,-0.032,-0.0325,-0.0279,-0.0253,-0.0245,-0.0158,-0.0097,-0.0002,0.0071,0.0141,0.0282,0.0355,0.0434,0.0458,0.0551,0.0603,0.0638,0.0646,0.0648,0.0646,0.0651,0.07,0.0683,0.0577,0.0558,0.0558,0.0558,0,-0.0357,-0.0355,-0.0351,-0.0292,-0.0279,-0.0242,-0.014,-0.008,0.0059,0.0105,0.0232,0.0307,0.0436,0.0469,0.0601,0.0589,0.0614,0.0651,0.0649,0.0699,0.0688,0.0551,0.0582,0.0562,0.0561,0.0561,0.0561,0,-0.0424,-0.0397,-0.0396,-0.0377,-0.0303,-0.0272,-0.0216,-0.009,-0.0054,0.0071,0.0074,0.0264,0.0293,0.0417,0.0521,0.0536,0.0615,0.065,0.0697,0.0693,0.0694,0.0691,0.0732,0.0732,0.0733,0.0733,0.0733,0,-0.0473,-0.0476,-0.0437,-0.0438,-0.0428,-0.0345,-0.031,-0.0232,-0.0154,-0.0107,0.0035,0.0086,0.028,0.0365,0.0474,0.0586,0.0584,0.0695,0.0698,0.0678,0.0675,0.0699,0.0697,0.0728,0.0729,0.073,0.0731,0,-0.0548,-0.0525,-0.0529,-0.0478,-0.0465,-0.0459,-0.0403,-0.0379,-0.031,-0.0265,-0.0245,-0.0091,0.0038,0.0209,0.0371,0.0491,0.0616,0.0652,0.0561,0.0561,0.0632,0.0631,0.0661,0.0662,0.0663,0.0663,0.0664,0,-0.0588,-0.0603,-0.058,-0.0589,-0.0573,-0.0555,-0.054,-0.0463,-0.044,-0.0344,-0.0335,-0.0222,-0.0073,0.0147,0.0371,0.0541,0.0587,0.0609,0.0701,0.0643,0.0642,0.0639,0.0636,0.0625,0.0626,0.0626,0.0626,0,-0.0661,-0.0654,-0.0654,-0.068,-0.0682,-0.067,-0.0645,-0.0657,-0.0554,-0.0514,-0.0402,-0.0285,-0.0065,0.0181,0.0394,0.0511,0.0597,0.0618,0.0607,0.0684,0.0612,0.061,0.0608,0.0627,0.0627,0.0627,0.0627,0.0627,-0.0712,-0.0736,-0.0738,-0.0758,-0.076,-0.0753,-0.0738,-0.0697,-0.065,-0.0525,-0.0427,-0.022,-0.0035,0.0318,0.0465,0.0599,0.0614,0.0671,0.0669,0.0667,0.0725,0.0665,0.0689,0.0689,0.0689,0.069,0.069,0,-0.0764,-0.0783,-0.0812,-0.0815,-0.0812,-0.0798,-0.0777,-0.073,-0.0646,-0.0499,-0.0343,-0.0104,0.0139,0.0319,0.0538,0.067,0.0658,0.0684,0.0651,0.065,0.0648,0.0705,0.0663,0.0663,0.0663,0.0664,0,0,-0.0793,-0.083,-0.0842,-0.0849,-0.0842,-0.0816,-0.0793,-0.0708,-0.0596,-0.0408,-0.0239,-0.0033,0.0173,0.0322,0.0468,0.0576,0.0578,0.058,0.059,0.0533,0.053,0.0633,0.0719,0,0,0,0,0]}],[{"header":{"parameterUnit":"m.s-1","parameterCategory":2,"la1":30.2991,"la2":30.254,"lo1":-89.0895,"lo2":-89.0444,"dy":0.0017,"dx":0.0017,"nx":28,"ny":28,"refTime":"2025-07-22T21:00:00:Z","depth":"4","parameterNumber":2,"parameterNumberName":"U-component_of_CURRENTS"},"data":[0,0,0,0,0,0,0,0,0,0,0,0,0,0,0,0,0,0,0,0,0,0,0,0,0,0,0,0,0,0,0,0,0,0,0,0,0,0,0,0,0,0,0,0,0,0,0,0,0,0,0,0,0,0,0,0,0,0,-0.1259,-0.126,0,-0.1321,-0.1321,-0.1322,-0.1343,-0.1343,-0.1343,-0.1343,-0.1365,-0.1365,-0.1366,0,0,0,0,0,0,0,0,0,0,0,0,0,-0.1151,-0.1153,-0.1259,-0.1261,-0.1262,-0.1321,-0.1321,-0.1322,-0.1342,-0.1343,-0.1343,-0.1343,-0.1365,-0.1365,-0.1366,0,0,0,0,0,0,0,0,0,0,0,0,0,-0.12,-0.1153,-0.1259,-0.1282,-0.1286,-0.1321,-0.1321,-0.1322,-0.1342,-0.1343,-0.1343,-0.1343,-0.1365,-0.1365,-0.1366,-0.1365,0,0,-0.1368,-0.1368,0,0,0,0,0,0,0,0,-0.1197,-0.1203,-0.1278,-0.1281,-0.1285,-0.1328,-0.1292,-0.1336,-0.1342,-0.1316,-0.1343,-0.1343,-0.1352,-0.1354,-0.1359,-0.1366,-0.1367,-0.1368,-0.1369,-0.1369,-0.1369,0,0,0,0,0,0,0,-0.1193,-0.1201,-0.1279,-0.1279,-0.1283,-0.1287,-0.1294,-0.13,-0.1328,-0.1318,-0.1321,-0.1335,-0.1353,-0.1358,-0.1359,-0.1368,-0.1368,-0.1369,-0.1369,-0.1369,-0.1436,-0.1438,0,0,0,0,0,0,-0.1195,-0.1198,-0.1277,-0.1282,-0.1245,-0.1289,-0.1297,-0.131,-0.1329,-0.1333,-0.1335,-0.1336,-0.1357,-0.1359,-0.136,-0.1416,-0.1369,-0.1369,-0.137,-0.1435,-0.1437,-0.1438,0,0,0,0,0,0,-0.1193,-0.1202,-0.1275,-0.1244,-0.1255,-0.1292,-0.1306,-0.1312,-0.134,-0.1342,-0.1345,-0.1361,-0.1357,-0.1359,-0.1384,-0.1415,-0.137,-0.137,-0.1433,-0.1435,-0.1437,-0.1491,0,0,0,0,0,0,-0.1189,-0.12,-0.1213,-0.1245,-0.1257,-0.1313,-0.1307,-0.1313,-0.1349,-0.1352,-0.1366,-0.1367,-0.1358,-0.1383,-0.1385,-0.1415,-0.1371,-0.1432,-0.1434,-0.1437,-0.1488,-0.1495,-0.1501,0,0,0,0,0,-0.1185,-0.1203,-0.1213,-0.1223,-0.1272,-0.1315,-0.1321,-0.1344,-0.135,-0.1369,-0.1377,-0.1367,-0.1401,-0.1385,-0.1386,-0.1417,-0.143,-0.1434,-0.1437,-0.1485,-0.1493,-0.1501,0,0,0,0,0,0,-0.1163,-0.1208,-0.122,-0.1251,-0.1288,-0.132,-0.1342,-0.1359,-0.1381,-0.1384,-0.1381,-0.1383,-0.1417,-0.141,-0.1393,-0.1445,-0.1416,-0.1419,-0.1452,-0.146,-0.1467,-0.1454,-0.1371,0,0,0,0,0,-0.1164,-0.1192,-0.1234,-0.1262,-0.1281,-0.1315,-0.1337,-0.1357,-0.138,-0.1392,-0.1403,-0.1413,-0.1428,-0.1439,-0.1447,-0.1474,-0.1463,-0.1496,-0.1503,-0.1508,-0.15,-0.1508,-0.1514,-0.1448,-0.1448,-0.1448,0,0,-0.1165,-0.1194,-0.121,-0.126,-0.1288,-0.132,-0.1329,-0.1372,-0.1396,-0.1389,-0.1424,-0.1438,-0.1441,-0.1471,-0.1486,-0.1471,-0.1528,-0.1512,-0.1517,-0.1506,-0.1511,-0.1518,-0.1523,-0.145,-0.145,-0.145,0,0,-0.118,-0.1206,-0.1235,-0.1266,-0.1319,-0.1338,-0.1358,-0.1402,-0.142,-0.1457,-0.146,-0.1485,-0.1513,-0.1517,-0.1522,-0.1569,-0.1563,-0.159,-0.1613,-0.1621,-0.1626,-0.163,-0.1647,-0.1652,-0.1593,-0.1593,-0.1593,0,-0.1178,-0.1217,-0.1251,-0.1285,-0.1311,-0.1349,-0.1381,-0.1406,-0.1454,-0.1463,-0.1475,-0.1518,-0.1527,-0.1552,-0.1579,-0.1582,-0.1594,-0.1582,-0.1629,-0.1632,-0.1636,-0.1651,-0.1656,-0.1596,-0.1596,-0.1595,-0.1595,0,-0.1207,-0.1246,-0.1267,-0.1319,-0.135,-0.1387,-0.1425,-0.1456,-0.1483,-0.1501,-0.1541,-0.1559,-0.158,-0.1602,-0.1609,-0.1647,-0.1652,-0.1636,-0.1605,-0.1645,-0.166,-0.1664,-0.16,-0.1599,-0.1598,-0.1597,0,0,-0.1183,-0.127,-0.1278,-0.1304,-0.1369,-0.1394,-0.1436,-0.1474,-0.1498,-0.1538,-0.1572,-0.1606,-0.162,-0.1627,-0.1647,-0.1666,-0.1716,-0.1676,-0.1675,-0.1686,-0.1753,-0.1619,-0.161,-0.1718,-0.1719,-0.172,-0.1761,0,-0.1196,-0.1257,-0.1298,-0.1351,-0.1383,-0.1424,-0.1454,-0.1491,-0.153,-0.1573,-0.1592,-0.1634,-0.1629,-0.1664,-0.1677,-0.1717,-0.1727,-0.1706,-0.1717,-0.1717,-0.1586,-0.1609,-0.1721,-0.1764,-0.1765,-0.1766,-0.1766,0,-0.12,-0.1246,-0.1301,-0.1362,-0.1377,-0.1413,-0.1462,-0.1495,-0.1551,-0.1584,-0.1622,-0.1654,-0.1702,-0.1695,-0.1738,-0.1735,-0.1744,-0.1759,-0.1761,-0.1611,-0.1587,-0.1711,-0.1773,-0.1773,-0.1772,-0.1772,-0.1771,0,-0.1154,-0.1237,-0.1278,-0.1303,-0.1381,-0.1408,-0.1442,-0.1497,-0.1531,-0.1606,-0.1657,-0.1689,-0.1742,-0.175,-0.1779,-0.1778,-0.1823,-0.1813,-0.1688,-0.168,-0.1766,-0.1761,-0.1816,-0.1816,-0.1816,-0.1816,-0.1816,0,-0.1133,-0.1167,-0.1265,-0.1289,-0.1325,-0.1386,-0.1429,-0.1469,-0.1551,-0.1587,-0.1663,-0.1704,-0.1764,-0.1798,-0.1798,-0.175,-0.1825,-0.1685,-0.1672,-0.1792,-0.1789,-0.177,-0.1764,-0.1818,-0.1817,-0.1817,-0.1817,0,-0.1069,-0.1139,-0.119,-0.1282,-0.131,-0.1332,-0.1424,-0.1457,-0.1545,-0.1611,-0.1646,-0.1745,-0.1766,-0.1799,-0.1827,-0.1765,-0.1739,-0.1697,-0.1837,-0.1833,-0.1593,-0.159,-0.1564,-0.1559,-0.1555,-0.1552,-0.1549,0,-0.1041,-0.1064,-0.1169,-0.1196,-0.1244,-0.1299,-0.1338,-0.1437,-0.148,-0.1605,-0.1631,-0.1707,-0.1743,-0.1679,-0.1713,-0.1677,-0.1646,-0.1638,-0.1592,-0.1572,-0.1564,-0.1567,-0.1569,-0.1543,-0.1542,-0.1541,-0.154,0,-0.0976,-0.1021,-0.107,-0.1128,-0.1183,-0.1235,-0.1304,-0.1332,-0.1437,-0.1545,-0.1565,-0.1572,-0.1591,-0.1584,-0.1567,-0.1539,-0.1649,-0.1596,-0.1604,-0.1561,-0.1547,-0.1543,-0.155,-0.1526,-0.1528,-0.153,-0.153,0,-0.0924,-0.0937,-0.1,-0.1041,-0.1111,-0.1147,-0.1196,-0.1245,-0.1301,-0.144,-0.1434,-0.1498,-0.157,-0.1511,-0.1495,-0.1453,-0.1422,-0.138,-0.1399,-0.1414,-0.1339,-0.1298,-0.1181,0,0,0,0,0,-0.0861,-0.0863,-0.0898,-0.0953,-0.1024,-0.1062,-0.1161,-0.1219,-0.1333,-0.1305,-0.1363,-0.1359,-0.1335,-0.1372,-0.1292,-0.1417,-0.1429,-0.132,-0.1391,-0.1451,-0.1467,-0.1388,0,0,0,0,0,0,-0.0816,-0.0843,-0.0865,-0.0874,-0.0895,-0.0966,-0.1028,-0.111,-0.1098,-0.1206,-0.1194,-0.127,-0.1261,-0.1349,-0.1261,-0.1268,-0.1284,-0.1356,-0.1352,-0.1442,-0.1456,-0.1469,-0.1394,0,0,0,0,0]},{"header":{"parameterUnit":"m.s-1","parameterCategory":2,"la1":30.2991,"la2":30.254,"lo1":-89.0895,"lo2":-89.0444,"dy":0.0017,"dx":0.0017,"nx":28,"ny":28,"refTime":"2025-07-22T21:00:00:Z","depth":"4","parameterNumber":3,"parameterNumberName":"V-component_of_CURRENTS"},"data":[0,0,0,0,0,0,0,0,0,0,0,0,0,0,0,0,0,0,0,0,0,0,0,0,0,0,0,0,0,0,0,0,0,0,0,0,0,0,0,0,0,0,0,0,0,0,0,0,0,0,0,0,0,0,0,0,0,0,-0.0116,-0.0115,0,-0.0081,-0.008,-0.008,-0.0049,-0.0049,-0.0048,-0.0048,-0.0005,-0.0005,-0.0004,0,0,0,0,0,0,0,0,0,0,0,0,0,-0.0122,-0.0123,-0.0116,-0.0115,-0.0115,-0.0081,-0.008,-0.008,-0.0049,-0.0049,-0.0048,-0.0048,-0.0006,-0.0005,-0.0004,0,0,0,0,0,0,0,0,0,0,0,0,0,-0.0108,-0.0123,-0.0116,-0.0094,-0.0092,-0.0081,-0.008,-0.008,-0.0049,-0.0049,-0.0048,-0.0047,-0.0006,-0.0005,-0.0004,-0.0012,0,0,-0.0001,-0.0,0,0,0,0,0,0,0,0,-0.0109,-0.0108,-0.0098,-0.0096,-0.0093,-0.0067,-0.0067,-0.0056,-0.005,-0.0067,-0.0048,-0.0047,-0.0025,-0.0022,-0.0019,-0.001,-0.0008,-0.0001,0.0,0.0001,0.0001,0,0,0,0,0,0,0,-0.011,-0.0109,-0.0103,-0.0098,-0.0094,-0.0074,-0.0072,-0.0065,-0.0051,-0.0066,-0.0063,-0.0057,-0.0024,-0.0021,-0.0018,-0.0007,-0.0001,0.0,0.0001,0.0001,-0.0042,-0.0043,0,0,0,0,0,0,-0.0114,-0.0111,-0.0104,-0.0102,-0.0098,-0.0075,-0.0072,-0.0077,-0.0052,-0.0047,-0.0058,-0.0056,-0.0023,-0.0019,-0.0017,-0.0043,0.0001,0.0001,0.0002,-0.004,-0.0042,-0.0044,0,0,0,0,0,0,-0.0115,-0.0115,-0.0106,-0.0103,-0.0101,-0.0076,-0.0082,-0.0077,-0.0071,-0.0045,-0.004,-0.0056,-0.0022,-0.0018,-0.0022,-0.0041,0.0002,0.0003,-0.0038,-0.004,-0.0043,-0.0085,0,0,0,0,0,0,-0.0116,-0.0115,-0.0122,-0.0104,-0.0101,-0.0106,-0.0082,-0.0077,-0.0068,-0.0065,-0.0042,-0.0038,-0.0021,-0.0024,-0.0021,-0.0039,0.0004,-0.0036,-0.0039,-0.0042,-0.0081,-0.0089,-0.0095,0,0,0,0,0,-0.0116,-0.0128,-0.0123,-0.0122,-0.0111,-0.0106,-0.0104,-0.0083,-0.0069,-0.0074,-0.0063,-0.0038,-0.0043,-0.0024,-0.0021,-0.0038,-0.0034,-0.0038,-0.0042,-0.0078,-0.0087,-0.0095,0,0,0,0,0,0,-0.0132,-0.0125,-0.0119,-0.0128,-0.0121,-0.0101,-0.0099,-0.0087,-0.0082,-0.0078,-0.0053,-0.0049,-0.0066,-0.0051,-0.003,-0.0065,-0.0037,-0.0041,-0.0067,-0.0075,-0.0082,-0.0071,0.0005,0,0,0,0,0,-0.014,-0.0149,-0.0137,-0.0145,-0.0141,-0.0122,-0.0116,-0.0105,-0.0095,-0.0091,-0.0079,-0.0074,-0.0081,-0.0075,-0.008,-0.0088,-0.0025,-0.0102,-0.0109,-0.0114,-0.0106,-0.0035,-0.0033,-0.0057,-0.0057,-0.0057,0,0,-0.0149,-0.0145,-0.0151,-0.0149,-0.0139,-0.015,-0.0117,-0.0113,-0.0127,-0.0089,-0.0105,-0.0099,-0.0093,-0.0111,-0.0116,-0.0095,-0.0073,-0.0119,-0.0124,-0.0112,-0.0039,-0.0036,-0.0033,-0.006,-0.0059,-0.0059,0,0,-0.0171,-0.0167,-0.0182,-0.0183,-0.0174,-0.0167,-0.0168,-0.0155,-0.0152,-0.0167,-0.0152,-0.0153,-0.0159,-0.0155,-0.0155,-0.0203,-0.0119,-0.0211,-0.0222,-0.0154,-0.015,-0.0146,-0.0043,-0.0029,-0.0204,-0.0205,-0.0205,0,-0.0179,-0.02,-0.0185,-0.02,-0.0206,-0.0179,-0.0199,-0.0198,-0.0192,-0.019,-0.0181,-0.0184,-0.0182,-0.019,-0.0213,-0.0215,-0.0144,-0.0187,-0.0158,-0.0153,-0.0148,-0.0043,-0.0027,-0.0207,-0.0207,-0.0207,-0.0206,0,-0.0212,-0.0232,-0.0239,-0.0257,-0.0262,-0.0274,-0.027,-0.0274,-0.0267,-0.0259,-0.0263,-0.0251,-0.0243,-0.0254,-0.0249,-0.0227,-0.0175,-0.0178,-0.0126,-0.0147,-0.0036,-0.0019,-0.0211,-0.021,-0.0209,-0.0208,0,0,-0.0224,-0.0257,-0.0261,-0.0283,-0.0294,-0.0302,-0.0325,-0.0332,-0.0332,-0.0326,-0.0312,-0.0337,-0.0302,-0.0301,-0.0283,-0.0228,-0.0138,-0.0187,-0.0182,-0.0064,0.0058,-0.0003,0.0012,-0.0121,-0.0119,-0.0117,0.013,0,-0.0254,-0.0302,-0.0309,-0.0358,-0.0382,-0.0376,-0.0398,-0.04,-0.0386,-0.0366,-0.0336,-0.0325,-0.0328,-0.0308,-0.026,-0.0166,-0.0097,-0.0202,0.0043,0.0051,0.0016,0.0026,-0.0111,0.0144,0.0148,0.0151,0.0153,0,-0.0283,-0.0314,-0.0368,-0.0411,-0.0418,-0.0443,-0.0455,-0.0469,-0.0437,-0.0419,-0.0384,-0.0343,-0.0275,-0.0272,-0.0097,-0.0153,-0.0057,0.0022,0.0033,0.0003,0.002,0.0161,0.0185,0.0183,0.018,0.0178,0.0176,0,-0.0301,-0.0355,-0.0402,-0.0419,-0.0459,-0.0479,-0.0494,-0.0485,-0.0483,-0.0432,-0.0397,-0.0319,-0.0251,-0.013,-0.0005,-0.0022,0.021,0.021,0.0254,0.0254,0.0259,0.0252,0.0336,0.0336,0.0335,0.0334,0.0334,0,-0.0333,-0.037,-0.0415,-0.0444,-0.049,-0.0505,-0.053,-0.0528,-0.0497,-0.0474,-0.0417,-0.0355,-0.0211,-0.0078,0.0035,0.0196,0.0246,0.0267,0.0305,0.0235,0.0222,0.0274,0.0263,0.0344,0.0342,0.034,0.0338,0,-0.0349,-0.0379,-0.0436,-0.0487,-0.0503,-0.0535,-0.056,-0.0565,-0.0531,-0.0484,-0.046,-0.0339,-0.0167,-0.003,0.0193,0.0247,0.0403,0.0438,0.0382,0.0412,0.0411,0.0395,0.0561,0.0561,0.056,0.056,0.056,0,-0.0364,-0.0395,-0.0464,-0.0495,-0.0523,-0.0565,-0.0587,-0.0585,-0.0574,-0.0472,-0.0435,-0.0274,-0.0187,0.0114,0.0228,0.0451,0.044,0.0538,0.044,0.0409,0.0432,0.0416,0.0401,0.056,0.056,0.056,0.0559,0,-0.0392,-0.0413,-0.046,-0.0518,-0.0559,-0.0597,-0.0619,-0.0607,-0.0573,-0.0537,-0.0381,-0.0243,-0.0058,0.0127,0.0272,0.0417,0.0486,0.0536,0.0538,0.0446,0.041,0.0428,0.0414,0.0559,0.0559,0.0559,0.0559,0,-0.0404,-0.044,-0.0491,-0.054,-0.059,-0.061,-0.0623,-0.0583,-0.056,-0.0444,-0.0384,-0.0196,-0.0077,0.0112,0.0254,0.0373,0.04,0.0431,0.0438,0.044,0.0281,0.0209,0.0346,0,0,0,0,0,-0.0407,-0.0446,-0.0503,-0.0558,-0.0603,-0.0626,-0.0633,-0.0631,-0.0584,-0.0474,-0.0428,-0.0258,-0.0031,0.0076,0.0192,0.0219,0.0391,0.0353,0.0423,0.0554,0.0555,0.0375,0,0,0,0,0,0,-0.0414,-0.0467,-0.0502,-0.0556,-0.059,-0.0632,-0.0638,-0.0608,-0.0538,-0.0466,-0.0336,-0.0252,-0.0032,-0.0095,0.019,0.0225,0.0279,0.0464,0.0466,0.0554,0.0555,0.0555,0.037,0,0,0,0,0]}]]